Wind_Speed
12 12 12 12 12 12 13 13 14 14 14 14 13 13 13 14 14 14 13 13 12 12 12 11 10 10 10 10 10 9 9 9 8 8 9 8 7 7 6 6 6 6 6
13 13 14 14 13 13 13 14 14 15 15 15 15 14 15 15 15 15 15 14 14 13 13 12 12 12 11 11 10 10 10 10 10 9 10 9 8 8 7 7 7 7 7
13 14 15 15 14 14 14 15 15 16 16 16 16 15 16 16 17 17 16 16 15 15 15 14 13 13 13 12 12 11 11 10 10 10 10 9 9 8 8 8 8 8 8
14 15 15 15 15 15 15 16 16 17 17 18 17 17 16 17 17 18 17 17 16 16 16 16 15 15 14 13 13 12 12 11 11 11 10 10 9 9 8 9 9 9 9
14 15 16 16 16 16 16 16 17 18 18 19 18 18 18 18 18 18 18 18 18 18 17 17 16 16 16 15 14 14 13 13 13 12 12 11 11 11 10 10 10 10 10
15 16 16 16 16 17 17 18 19 19 19 19 19 19 20 20 20 20 19 19 19 19 19 18 18 17 17 16 16 15 15 15 14 14 13 13 13 12 12 12 12 12 11
16 16 16 17 17 17 18 19 19 20 20 20 20 21 21 21 21 21 21 21 20 20 20 20 19 19 18 18 17 17 16 16 16 15 15 15 14 14 13 13 14 13 13
17 18 18 18 18 18 19 19 20 20 21 21 22 22 22 23 23 23 23 23 22 22 21 21 20 20 19 19 19 19 17 17 17 16 16 16 16 16 15 15 15 15 15
19 19 19 19 20 20 20 21 21 22 22 22 22 23 23 24 24 24 24 24 24 24 23 22 22 22 21 20 20 20 20 19 18 18 18 18 18 17 17 17 16 17 17
21 20 20 21 21 22 22 22 23 23 24 24 24 24 25 25 25 25 26 25 25 25 25 25 24 23 23 22 22 22 22 21 20 20 19 19 19 19 18 18 18 18 18
22 22 22 22 23 23 23 24 24 25 26 26 25 26 26 26 27 27 27 27 26 27 27 27 27 26 25 24 24 24 23 23 22 22 22 21 21 20 20 20 19 19 20
24 24 24 24 25 25 25 25 26 27 27 27 27 27 27 28 28 29 28 28 28 27 28 28 29 28 28 27 26 26 26 25 25 24 23 23 22 22 22 21 20 20 20
26 26 26 26 26 26 26 26 27 27 28 29 29 28 28 29 30 30 30 30 30 29 29 30 30 30 30 29 29 28 28 27 28 27 26 25 24 24 24 23 22 22 22
28 28 28 28 28 28 28 28 28 28 29 30 31 30 30 30 31 32 32 32 32 32 31 31 31 31 31 31 30 30 29 29 29 29 29 28 28 27 26 25 25 25 24
29 29 30 30 30 30 30 30 30 30 30 31 32 32 31 32 32 33 33 33 33 33 33 33 33 34 34 33 32 33 32 31 31 31 31 31 30 28 28 27 26 26 25
31 31 31 31 31 31 31 31 31 32 32 32 32 33 33 33 34 34 34 34 34 35 34 34 35 35 35 35 35 35 35 34 34 33 33 33 32 31 29 29 28 28 28
33 33 33 33 33 33 33 33 32 33 33 33 33 34 34 35 35 36 36 36 36 36 36 36 36 37 37 37 37 38 37 36 36 35 34 34 34 34 33 32 31 30 30
33 34 34 34 35 34 34 34 34 34 34 34 35 35 35 36 36 37 37 37 37 38 38 38 37 37 38 38 38 38 38 38 38 37 36 35 35 36 35 35 35 33 32
33 34 35 35 35 36 36 36 36 36 36 36 36 36 36 36 36 37 38 38 38 39 39 39 38 38 38 38 38 39 39 38 38 38 37 36 36 36 36 37 37 35 35
34 35 36 36 36 37 38 38 38 38 38 37 37 37 38 38 37 37 38 39 39 39 39 40 39 39 38 39 40 40 40 39 40 39 38 37 37 37 37 38 38 37 36
36 36 37 37 36 37 38 38 38 38 38 38 37 37 38 39 39 38 39 39 40 41 41 41 42 41 40 39 40 41 41 40 40 40 40 40 40 39 38 38 39 39 39
37 37 37 37 37 38 38 38 39 39 38 38 38 38 38 39 40 40 40 40 41 42 42 43 43 42 41 41 41 41 42 42 42 42 42 42 41 41 40 40 40 40 41
38 38 38 38 38 38 38 38 39 39 39 40 40 40 40 41 41 41 40 40 41 42 42 42 44 44 43 44 43 44 43 43 43 43 43 43 43 43 43 43 42 42 41
38 38 39 39 39 40 39 39 39 40 41 41 42 41 41 42 41 42 42 41 42 43 42 42 44 45 45 45 45 46 46 45 44 44 44 44 44 44 44 43 43 43 42
37 38 39 39 40 40 40 40 40 41 41 42 42 42 43 43 43 43 44 43 42 43 43 42 43 45 46 46 46 47 48 48 47 46 46 46 46 46 46 46 45 44 44
37 38 38 39 40 41 42 41 41 41 42 42 43 43 44 45 45 46 46 45 44 44 45 45 45 45 47 47 47 47 48 49 48 48 48 48 48 48 47 47 46 45 45
Wind_Direction
243 243 242 242 242 243 244 244 244 243 243 243 243 243 241 240 241 241 241 242 242 242 245 246 247 249 247 246 248 248 246 248 248 247 246 244 244 244 246 253 260 268 272
245 245 244 243 243 244 245 245 243 243 243 243 244 244 244 242 242 243 243 244 244 246 248 250 248 249 248 246 247 248 247 246 248 246 247 248 248 248 249 252 258 263 267
249 248 247 246 244 244 246 247 245 243 243 244 244 246 245 244 244 244 244 244 246 246 248 250 249 249 250 249 248 248 248 247 247 246 246 247 248 249 249 252 258 261 264
252 252 251 249 247 245 245 246 245 244 244 244 244 246 246 245 245 244 244 245 247 248 249 251 250 249 249 249 248 247 247 247 246 246 248 247 248 249 251 255 259 261 264
252 252 251 250 248 248 247 246 246 246 246 245 245 245 246 246 246 245 245 245 247 249 250 251 253 251 251 249 248 246 247 248 249 247 248 249 251 252 253 257 259 262 265
252 253 252 252 250 250 250 249 248 247 248 247 247 247 247 248 248 248 247 247 248 249 251 252 254 253 252 251 247 245 246 249 250 250 250 252 254 255 255 257 259 263 263
254 254 253 253 252 251 250 250 248 248 248 248 249 250 250 250 249 249 249 249 249 250 252 253 254 254 252 251 249 249 246 247 251 251 251 252 255 256 258 259 261 261 264
255 255 254 253 252 252 250 250 249 249 249 249 250 251 251 252 251 250 250 250 250 251 253 252 253 254 253 252 251 251 249 249 250 252 253 253 255 257 258 260 261 262 264
257 256 254 254 254 253 252 252 251 250 250 252 253 253 253 252 252 252 251 252 251 251 252 253 253 253 253 252 251 251 251 249 249 251 252 253 254 256 258 260 261 262 263
258 257 256 255 255 255 254 254 253 253 252 253 254 254 254 253 252 251 252 252 252 251 252 253 253 253 252 252 251 250 250 250 252 253 254 254 255 257 258 259 261 261 263
257 257 256 256 256 255 255 254 254 254 254 254 254 254 254 254 253 252 252 252 253 253 253 254 253 253 253 252 252 251 250 251 253 253 255 256 256 258 259 261 262 261 261
256 256 256 257 258 257 255 255 254 254 254 255 255 255 254 254 254 252 252 252 253 254 255 255 255 253 252 252 252 251 250 252 252 252 254 255 257 258 259 259 260 261 262
257 257 257 258 258 258 257 257 256 254 254 256 256 256 256 255 253 253 253 253 253 255 255 255 255 255 253 252 252 251 251 251 252 252 252 255 256 258 258 258 259 261 262
256 257 258 259 259 259 259 258 257 256 256 256 257 257 257 256 254 254 254 254 254 255 257 257 256 255 255 253 252 251 251 251 252 253 253 255 256 257 259 258 259 260 261
256 256 258 259 259 259 259 260 260 260 259 258 257 258 257 257 256 255 256 256 256 257 258 259 257 255 255 254 254 253 252 253 254 254 254 254 256 258 258 258 258 259 260
256 256 257 259 260 260 260 260 262 262 262 261 260 259 258 258 258 257 257 258 258 258 259 260 259 256 255 255 255 255 254 255 254 255 255 255 255 256 257 259 259 259 260
257 256 257 259 260 261 261 261 261 262 262 262 261 261 260 259 259 259 259 260 260 261 261 261 261 257 254 254 255 256 255 255 255 255 255 255 255 255 257 258 258 259 260
259 258 258 259 260 260 260 260 261 262 262 262 262 262 261 261 260 260 260 260 261 261 261 261 261 258 256 255 254 256 256 255 255 256 256 255 256 256 257 258 259 259 261
259 259 259 259 259 260 260 260 261 261 261 261 261 262 260 260 260 261 261 262 262 262 261 260 258 259 257 256 255 255 255 255 255 255 256 256 256 256 257 258 259 260 261
260 260 260 260 260 259 259 260 261 261 261 261 261 261 261 259 260 262 262 262 262 262 261 260 258 258 257 256 255 254 255 255 255 255 255 255 256 256 257 258 258 260 261
260 261 261 262 261 260 260 260 260 261 261 261 261 261 261 259 259 262 262 264 263 262 262 261 259 258 257 256 256 254 254 255 256 256 255 255 258 258 258 259 260 260 261
260 261 262 262 262 262 261 260 259 259 259 259 259 260 261 260 260 262 263 264 264 263 263 261 259 258 256 256 256 255 254 255 255 256 257 257 258 258 259 259 260 261 262
260 261 261 262 262 262 262 261 260 259 259 259 260 260 261 261 260 260 262 263 264 264 264 261 259 258 256 255 256 256 254 255 257 256 257 257 257 258 258 259 260 261 262
260 261 261 261 261 262 262 262 261 260 260 260 261 260 260 261 260 261 261 265 266 265 265 262 260 259 257 256 256 256 255 255 255 255 255 256 256 257 258 259 260 260 261
260 261 261 262 262 262 262 263 262 262 261 260 261 262 261 261 261 262 263 265 267 266 265 264 262 259 257 257 258 257 256 256 256 256 255 255 256 257 258 258 260 260 261
260 261 262 262 263 262 262 263 264 263 263 262 263 264 263 263 263 264 266 266 267 267 265 264 262 260 258 257 258 257 257 256 257 257 257 256 256 256 257 258 259 260 261
Height
5839 5839 5840 5840 5841 5842 5843 5843 5844 5845 5845 5846 5846 5847 5848 5848 5849 5850 5850 5851 5852 5852 5852 5853 5853 5854 5854 5854 5854 5854 5855 5855 5855 5855 5855 5855 5856 5856 5856 5856 5856 5856 5856
5837 5837 5837 5838 5839 5839 5840 5841 5841 5842 5843 5843 5844 5845 5845 5846 5847 5847 5848 5849 5849 5850 5850 5850 5851 5851 5852 5852 5852 5853 5853 5853 5853 5853 5853 5854 5854 5854 5854 5855 5855 5854 5854
5834 5835 5835 5836 5836 5837 5837 5838 5838 5839 5840 5841 5841 5842 5842 5843 5844 5845 5845 5846 5847 5847 5848 5848 5849 5849 5850 5850 5850 5850 5851 5851 5850 5851 5851 5852 5853 5853 5853 5853 5853 5853 5853
5831 5832 5832 5833 5834 5834 5835 5835 5836 5836 5837 5837 5838 5839 5840 5840 5841 5842 5842 5843 5844 5844 5845 5846 5846 5847 5847 5848 5848 5848 5849 5849 5848 5849 5849 5850 5851 5851 5851 5851 5851 5851 5851
5828 5829 5829 5830 5830 5831 5831 5832 5833 5833 5834 5834 5835 5836 5836 5837 5838 5838 5839 5840 5841 5841 5842 5843 5843 5844 5844 5845 5846 5846 5846 5847 5847 5847 5847 5848 5849 5849 5849 5849 5849 5849 5849
5825 5825 5826 5826 5827 5827 5828 5829 5829 5830 5831 5831 5832 5832 5833 5834 5834 5835 5836 5836 5837 5838 5839 5839 5840 5841 5841 5842 5843 5843 5844 5844 5844 5845 5845 5846 5846 5846 5847 5847 5847 5847 5847
5821 5822 5822 5822 5823 5823 5824 5825 5825 5826 5827 5828 5828 5829 5829 5830 5830 5831 5832 5833 5834 5834 5835 5836 5837 5837 5838 5839 5839 5840 5840 5841 5841 5842 5843 5843 5843 5844 5844 5844 5844 5844 5844
5818 5818 5818 5819 5819 5820 5820 5821 5822 5822 5823 5824 5824 5825 5825 5826 5826 5827 5828 5828 5829 5830 5831 5832 5833 5833 5834 5835 5836 5836 5837 5838 5838 5838 5839 5840 5840 5841 5841 5841 5841 5841 5841
5814 5814 5814 5815 5815 5816 5816 5817 5818 5818 5819 5819 5820 5820 5820 5821 5821 5822 5823 5824 5825 5826 5826 5827 5829 5829 5830 5831 5832 5832 5833 5834 5834 5835 5836 5836 5837 5837 5837 5838 5838 5838 5838
5809 5809 5810 5810 5811 5811 5812 5812 5813 5813 5814 5815 5815 5815 5815 5816 5816 5817 5817 5818 5819 5820 5821 5822 5824 5825 5826 5826 5827 5828 5829 5830 5831 5831 5832 5832 5833 5833 5834 5834 5834 5834 5834
5804 5804 5805 5805 5806 5806 5807 5807 5808 5808 5809 5809 5810 5810 5810 5810 5810 5811 5812 5813 5814 5814 5816 5816 5818 5819 5820 5821 5822 5823 5824 5825 5826 5827 5827 5828 5828 5829 5829 5830 5830 5830 5830
5799 5799 5799 5800 5800 5801 5801 5802 5802 5803 5803 5804 5804 5804 5804 5804 5804 5805 5805 5806 5807 5808 5809 5810 5811 5813 5814 5815 5817 5818 5819 5820 5821 5822 5823 5823 5824 5824 5825 5825 5825 5826 5826
5792 5793 5793 5794 5794 5795 5795 5795 5796 5796 5797 5797 5798 5798 5798 5798 5798 5798 5799 5800 5801 5802 5803 5804 5805 5806 5808 5809 5811 5812 5813 5814 5815 5816 5817 5818 5819 5819 5820 5820 5820 5821 5821
5786 5786 5787 5787 5788 5788 5789 5789 5789 5790 5790 5790 5791 5791 5791 5791 5791 5792 5792 5793 5794 5795 5796 5797 5798 5800 5801 5802 5804 5805 5806 5808 5809 5810 5811 5812 5813 5814 5814 5815 5815 5815 5816
5779 5779 5780 5780 5781 5781 5782 5783 5783 5783 5783 5783 5784 5784 5784 5784 5785 5785 5786 5786 5787 5788 5789 5790 5791 5792 5794 5795 5796 5798 5800 5801 5802 5803 5805 5806 5807 5808 5808 5809 5809 5809 5810
5771 5772 5773 5773 5774 5774 5775 5775 5776 5776 5776 5776 5776 5776 5777 5777 5777 5778 5778 5779 5780 5781 5781 5782 5783 5784 5786 5787 5789 5790 5792 5794 5795 5796 5797 5799 5800 5801 5801 5802 5803 5803 5803
5763 5764 5765 5765 5766 5766 5767 5768 5768 5768 5768 5768 5768 5769 5769 5769 5770 5770 5771 5771 5772 5772 5773 5773 5774 5775 5777 5778 5780 5782 5783 5785 5787 5788 5790 5791 5792 5794 5794 5795 5796 5796 5797
5755 5755 5756 5757 5757 5758 5758 5759 5760 5760 5760 5760 5760 5761 5761 5761 5762 5762 5763 5763 5763 5764 5764 5765 5765 5766 5768 5769 5771 5773 5775 5777 5779 5780 5782 5783 5784 5786 5787 5788 5788 5789 5789
5746 5747 5747 5748 5748 5749 5749 5750 5751 5751 5752 5752 5752 5752 5752 5753 5753 5754 5754 5754 5754 5754 5754 5755 5756 5757 5759 5761 5762 5764 5766 5768 5770 5771 5773 5775 5776 5777 5779 5779 5780 5781 5781
5737 5738 5738 5739 5739 5740 5740 5740 5741 5742 5742 5743 5743 5743 5744 5744 5744 5745 5745 5745 5745 5745 5745 5746 5747 5748 5750 5751 5753 5755 5757 5759 5760 5762 5764 5766 5767 5769 5770 5771 5771 5772 5772
5728 5728 5729 5729 5730 5730 5731 5731 5732 5732 5733 5733 5734 5734 5734 5735 5735 5736 5735 5735 5735 5735 5735 5736 5737 5738 5740 5742 5743 5745 5747 5749 5751 5753 5755 5757 5758 5759 5761 5761 5762 5763 5764
5718 5719 5719 5720 5720 5721 5721 5721 5722 5722 5723 5724 5724 5724 5724 5725 5726 5726 5726 5726 5726 5725 5725 5725 5726 5727 5729 5731 5733 5735 5737 5740 5741 5743 5745 5747 5749 5750 5751 5752 5753 5753 5754
5708 5709 5709 5710 5710 5711 5711 5711 5711 5712 5713 5713 5714 5714 5715 5715 5715 5716 5716 5716 5715 5715 5715 5715 5715 5716 5718 5720 5722 5724 5726 5729 5731 5733 5735 5737 5738 5739 5740 5741 5742 5743 5744
5698 5698 5699 5699 5700 5700 5700 5701 5701 5702 5703 5703 5703 5704 5704 5704 5705 5705 5705 5705 5705 5704 5704 5704 5704 5705 5707 5708 5711 5713 5715 5717 5720 5722 5724 5725 5727 5728 5729 5730 5731 5732 5733
5687 5687 5688 5688 5689 5689 5690 5690 5690 5691 5691 5692 5692 5693 5693 5693 5694 5694 5694 5694 5694 5694 5694 5693 5693 5694 5695 5697 5699 5701 5703 5705 5707 5710 5713 5714 5715 5717 5718 5719 5720 5721 5722
5676 5677 5677 5678 5678 5678 5678 5679 5679 5679 5680 5680 5681 5681 5681 5682 5682 5682 5682 5683 5683 5682 5682 5682 5682 5683 5683 5685 5687 5689 5691 5693 5695 5698 5700 5702 5703 5705 5706 5707 5708 5709 5709